Weather History for KMRB - August, 2013

Change the Weather History Date:

Monday, August 19, 2013

  Actual Average Record
Temperature  
Mean Temperature 68 °F 73 °F  
Max Temperature 78 °F 84 °F 98 °F (1983)
Min Temperature 58 °F 62 °F 47 °F (1981)
Degree Days  
Heating Degree Days 0 0  
Month to date heating degree days 4 0  
Since 1 June heating degree days 6 25  
Since 1 July heating degree days 4 1  
Cooling Degree Days 3 8  
Month to date cooling degree days 114 165  
Year to date cooling degree days 812 708  
Since 1 June cooling degree days 701 651  
Growing Degree Days 17 (Base 50)    
Moisture  
Dew Point 62 °F    
Average Humidity 83    
Maximum Humidity 97    
Minimum Humidity 69    
Precipitation  
Precipitation 0.06 in 0.10 in 3.14 in (1950)
Month to date precipitation 2.75 1.93  
Year to date precipitation 21.15 25.09  
Sea Level Pressure  
Sea Level Pressure 30.13 in    
Wind  
Wind Speed 1 mph (SE)    
Max Wind Speed 6 mph    
Max Gust Speed 8 mph    
Visibility 6 miles    
Events Rain    
T = Trace of Precipitation, MM = Missing Value Source: NWS Daily Summary

Daily Weather History Graph

Daily Weather History Graph

Search for Another Location

Airport or City:

Trip Planner

Search our weather history database for the weather conditions in past years. The results will help you decide how hot, cold, wet, or windy it might be!

Date:

Astronomy

Aug. 19, 2013 Rise Set
Actual Time 6:28 AM EDT 8:01 PM EDT
Civil Twilight 6:00 AM EDT 8:30 PM EDT
Nautical Twilight 5:25 AM EDT 9:04 PM EDT
Astronomical Twilight 4:49 AM EDT 9:40 PM EDT
Moon 6:51 PM EDT (8/19) 4:45 AM EDT (8/19)
Length of Visible Light 14h 29m
Length of Day
13h 33m
Waxing Gibbous, 97% of the Moon is Illuminated
Aug 19
Waxing Gibbous
Aug 20
Full
Aug 28
Last Quarter
Sep 5
New
Sep 12
First Quarter

Hourly Weather History & Observations

Time (EDT) Temp. Dew Point Humidity Pressure Visibility Wind Dir Wind Speed Gust Speed Precip Events Conditions
12:53 AM 60.1 °F 57.9 °F 93% 30.19 in 7.0 mi Calm Calm - N/A   Clear
1:53 AM 60.1 °F 57.9 °F 93% 30.18 in 6.0 mi Calm Calm - N/A   Clear
2:53 AM 59.0 °F 57.0 °F 93% 30.17 in 5.0 mi Calm Calm - N/A   Clear
3:53 AM 57.9 °F 55.9 °F 93% 30.16 in 5.0 mi Calm Calm - N/A   Clear
4:15 AM 59.0 °F 57.2 °F 94% 30.16 in 4.0 mi Calm Calm - N/A   Partly Cloudy
4:53 AM 60.1 °F 57.0 °F 90% 30.16 in 8.0 mi Calm Calm - N/A   Overcast
5:13 AM 59.0 °F 57.2 °F 94% 30.15 in 6.0 mi Calm Calm - N/A   Mostly Cloudy
5:53 AM 59.0 °F 57.0 °F 93% 30.14 in 4.0 mi Calm Calm - N/A   Mostly Cloudy
6:53 AM 60.1 °F 57.9 °F 93% 30.15 in 4.0 mi Calm Calm - N/A   Clear
7:53 AM 61.0 °F 59.0 °F 93% 30.16 in 4.0 mi Calm Calm - N/A   Overcast
8:53 AM 63.0 °F 60.1 °F 90% 30.16 in 4.0 mi Calm Calm - N/A   Overcast
9:53 AM 64.9 °F 62.1 °F 90% 30.15 in 5.0 mi SE 3.5 mph - 0.00 in   Overcast
10:00 AM 64.4 °F 62.6 °F 94% 30.15 in 5.0 mi SSE 3.5 mph - N/A   Overcast
10:23 AM 66.2 °F 62.6 °F 88% 30.15 in 4.0 mi Calm Calm - 0.00 in Rain Light Rain
10:39 AM 64.4 °F 62.6 °F 94% 30.15 in 2.5 mi Calm Calm - 0.01 in Rain Light Rain
10:53 AM 64.9 °F 62.1 °F 90% 30.14 in 2.5 mi Calm Calm - 0.04 in Rain Light Rain
11:00 AM 66.2 °F 62.6 °F 88% 30.15 in 5.0 mi Calm Calm - 0.00 in   Overcast
11:53 AM 66.9 °F 63.0 °F 87% 30.15 in 5.0 mi Calm Calm - 0.01 in Rain Light Rain
12:04 PM 66.2 °F 62.6 °F 88% 30.15 in 2.5 mi Calm Calm - 0.01 in Rain Light Rain
12:18 PM 66.2 °F 62.6 °F 88% 30.15 in 4.0 mi Calm Calm - 0.01 in Rain Light Rain
12:53 PM 68.0 °F 64.0 °F 87% 30.13 in 6.0 mi Calm Calm - 0.01 in   Overcast
1:23 PM 69.8 °F 64.4 °F 83% 30.14 in 10.0 mi West 3.5 mph - N/A   Overcast
1:53 PM 70.0 °F 64.0 °F 81% 30.12 in 10.0 mi Calm Calm - N/A   Overcast
2:42 PM 73.4 °F 64.4 °F 73% 30.12 in 10.0 mi Calm Calm - N/A   Overcast
2:53 PM 73.0 °F 64.9 °F 76% 30.11 in 10.0 mi ENE 4.6 mph - N/A   Mostly Cloudy
3:53 PM 73.9 °F 64.9 °F 73% 30.10 in 10.0 mi Calm Calm - N/A   Mostly Cloudy
4:40 PM 75.2 °F 64.4 °F 69% 30.10 in 10.0 mi Calm Calm - N/A   Mostly Cloudy
4:53 PM 75.0 °F 64.9 °F 71% 30.08 in 10.0 mi Calm Calm - N/A   Overcast
5:53 PM 77.0 °F 66.0 °F 69% 30.08 in 10.0 mi Calm Calm - N/A   Scattered Clouds
6:53 PM 75.0 °F 66.9 °F 76% 30.08 in 10.0 mi Calm Calm - N/A   Scattered Clouds
7:53 PM 72.0 °F 66.9 °F 84% 30.08 in 10.0 mi East 3.5 mph - N/A   Partly Cloudy
8:53 PM 69.1 °F 66.0 °F 90% 30.09 in 10.0 mi Calm Calm - N/A   Clear
9:53 PM 69.1 °F 66.0 °F 90% 30.11 in 9.0 mi Calm Calm - N/A   Clear
10:53 PM 66.0 °F 64.0 °F 93% 30.12 in 6.0 mi Calm Calm - N/A   Clear
11:32 PM 64.4 °F 62.6 °F 94% 30.12 in 2.5 mi Calm Calm - N/A   Clear
11:40 PM 64.4 °F 62.6 °F 94% 30.12 in 5.0 mi Calm Calm - N/A   Clear
11:51 PM 64.4 °F 62.6 °F 94% 30.12 in 1.0 mi Calm Calm - N/A   Clear
11:53 PM 64.0 °F 63.0 °F 96% 30.12 in 1.0 mi Calm Calm - N/A   Clear